Ketchikan, AK

10:46 PM AKDT on September 22, 2018 (GMT -0800)
Ketchikan International

Weather History for PAKT - March, 2018

Change the Weather History Date:

Friday, March 30, 2018

  Actual Average Record
Temperature  
Mean Temperature 41 °F 40 °F  
Max Temperature 49 °F 46 °F 57 °F (1956)
Min Temperature 33 °F 33 °F 21 °F (1965)
Degree Days  
Heating Degree Days 24 25  
Month to date heating degree days 759 819  
Moisture  
Dew Point 30 °F    
Average Humidity 72    
Maximum Humidity 92    
Minimum Humidity 36    
Precipitation  
Precipitation 0.00 in 0.34 in 2.00 in (1964)
Month to date precipitation 6.41 10.55  
Year to date precipitation 26.84 36.48  
Sea Level Pressure  
Sea Level Pressure 30.26 in    
Wind  
Wind Speed 7 mph (NW)    
Max Wind Speed 13 mph    
Max Gust Speed 16 mph    
Visibility 10 miles    
Events      
T = Trace of Precipitation, MM = Missing Value Source: NWS Daily Summary

Daily Weather History Graph

Daily Weather History Graph

Search for Another Location

Airport or City:

Astronomy

Mar. 30, 2018 Rise Set
Actual Time 6:22 AM AKDT 7:20 PM AKDT
Civil Twilight 5:45 AM AKDT 7:58 PM AKDT
Nautical Twilight 5:00 AM AKDT 8:43 PM AKDT
Astronomical Twilight 4:11 AM AKDT 9:33 PM AKDT
Moon 6:29 PM AKDT (3/30) 6:35 AM AKDT (3/30)
Length of Visible Light 14h 12m
Length of Day
12h 58m
Waxing Gibbous, 99% of the Moon is Illuminated
Mar 30
Waxing Gibbous
Mar 31
Full
Apr 7
Last Quarter
Apr 15
New
Apr 22
First Quarter

Hourly Weather History & Observations

Time (AKDT) Temp. Windchill Dew Point Humidity Pressure Visibility Wind Dir Wind Speed Gust Speed Precip Events Conditions
12:53 AM 35.1 °F 29.3 °F 33.1 °F 92% 30.06 in 10.0 mi WNW 6.9 mph - N/A   Clear
1:53 AM 35.1 °F 28.6 °F 33.1 °F 92% 30.09 in 10.0 mi NW 8.1 mph - N/A   Clear
2:53 AM 34.0 °F 28.0 °F 32.0 °F 92% 30.12 in 10.0 mi NW 6.9 mph - N/A   Clear
3:53 AM 34.0 °F 26.6 °F 30.9 °F 89% 30.14 in 10.0 mi NW 9.2 mph - N/A   Clear
4:53 AM 35.1 °F 31.0 °F 30.9 °F 85% 30.17 in 10.0 mi WNW 4.6 mph - N/A   Clear
5:53 AM 33.1 °F 27.7 °F 30.0 °F 89% 30.20 in 10.0 mi NNW 5.8 mph - N/A   Clear
6:53 AM 33.8 °F 30.8 °F 30.2 °F 87% 30.22 in 10.0 mi WNW 3.5 mph - N/A   Clear
7:53 AM 37.4 °F 31.4 °F 32.0 °F 81% 30.24 in 10.0 mi NW 8.1 mph - N/A   Clear
8:53 AM 39.0 °F 33.4 °F 34.0 °F 82% 30.25 in 10.0 mi NW 8.1 mph - N/A   Clear
9:53 AM 42.8 °F 37.5 °F 32.0 °F 66% 30.27 in 10.0 mi NNW 9.2 mph - N/A   Clear
10:53 AM 44.6 °F 38.8 °F 30.2 °F 57% 30.29 in 10.0 mi NNW 11.5 mph - N/A   Clear
11:53 AM 46.4 °F 41.1 °F 30.2 °F 53% 30.31 in 10.0 mi NNW 11.5 mph - N/A   Partly Cloudy
12:53 PM 46.4 °F 40.7 °F 30.2 °F 53% 30.32 in 10.0 mi NNW 12.7 mph - N/A   Partly Cloudy
1:53 PM 46.9 °F - 30.0 °F 52% 30.32 in 10.0 mi NNW 10.4 mph - N/A   Clear
2:53 PM 48.0 °F - 28.9 °F 48% 30.33 in 10.0 mi NNW 10.4 mph - N/A   Partly Cloudy
3:53 PM 46.9 °F - 25.0 °F 42% 30.33 in 10.0 mi NW 8.1 mph - N/A   Partly Cloudy
4:53 PM 48.0 °F - 21.9 °F 36% 30.34 in 10.0 mi NW 6.9 mph - N/A   Partly Cloudy
5:53 PM 46.9 °F - 24.1 °F 41% 30.33 in 10.0 mi Calm Calm - N/A   Clear
6:53 PM 41.0 °F 37.1 °F 33.8 °F 76% 30.33 in 10.0 mi SSE 5.8 mph - N/A   Clear
7:53 PM 39.0 °F 34.8 °F 30.9 °F 73% 30.33 in 10.0 mi South 5.8 mph - N/A   Clear
8:53 PM 37.9 °F 33.5 °F 30.9 °F 76% 30.34 in 10.0 mi South 5.8 mph - N/A   Clear
9:53 PM 36.0 °F 32.1 °F 30.9 °F 82% 30.34 in 10.0 mi SE 4.6 mph - N/A   Clear
10:53 PM 36.0 °F 32.1 °F 32.0 °F 86% 30.34 in 10.0 mi SE 4.6 mph - N/A   Clear
11:53 PM 35.1 °F 31.0 °F 32.0 °F 89% 30.34 in 10.0 mi SE 4.6 mph - N/A   Clear